Theta_e
310 309 307 304 300 299 298 298 298 299 303 308 311 311 311 309 306 302 301 303 304 299 299 300 300 301 300 305 304 302 306 307 309 310 312 314 316 314 315 313 312 313 307 304 302 302 302
307 309 307 304 301 299 298 298 297 298 299 305 309 310 308 305 302 302 303 303 303 301 299 300 300 301 302 306 299 301 306 307 308 308 309 312 315 312 311 309 311 307 307 305 303 302 301
307 308 306 303 300 299 298 297 297 297 297 299 305 308 308 305 303 303 304 302 300 300 300 300 300 300 302 301 300 302 306 304 305 307 311 309 310 313 310 310 306 307 311 308 307 305 304
308 305 306 305 301 299 298 298 297 296 296 297 299 304 306 306 304 304 303 301 300 300 299 299 299 299 300 299 300 302 305 305 304 307 307 307 308 308 309 307 308 312 313 316 308 307 302
305 305 305 305 302 300 299 298 297 296 296 296 297 300 304 305 305 304 302 300 299 299 299 299 299 300 300 299 300 299 299 301 303 304 306 307 308 309 308 314 314 313 315 313 311 305 306
305 303 303 303 302 300 299 298 297 296 296 296 297 297 302 303 302 303 300 301 299 299 299 299 298 303 299 298 296 297 298 300 302 307 310 311 312 314 313 315 311 313 312 310 310 305 304
313 305 302 303 301 301 300 298 298 297 296 296 297 297 301 304 302 300 301 301 303 305 297 296 296 297 297 296 298 297 296 299 303 306 311 306 313 313 312 308 307 309 311 312 309 300 301
317 313 306 302 302 301 300 299 298 297 296 296 297 298 299 300 300 300 299 300 299 299 299 296 295 296 295 294 300 298 296 302 304 305 303 308 306 299 303 302 305 307 309 309 304 297 298
318 316 313 306 302 301 301 299 298 297 296 296 297 297 297 299 299 299 298 298 297 297 303 298 296 296 296 295 296 297 296 298 300 300 300 302 297 294 298 301 305 304 307 306 304 298 295
319 318 315 313 306 302 301 300 299 297 296 296 297 297 297 298 300 299 300 299 299 298 311 303 299 296 296 296 297 294 293 297 298 299 297 297 294 295 297 298 297 301 295 296 296 298 304
321 319 318 315 313 304 301 300 299 298 296 295 296 296 298 298 300 302 299 298 299 302 323 300 298 295 296 298 296 296 292 297 298 297 297 296 294 295 297 294 295 297 294 295 295 296 296
321 320 319 318 315 312 303 301 300 298 297 295 295 297 298 298 299 299 298 299 303 316 326 303 298 298 299 297 296 296 295 295 295 296 296 294 292 294 294 293 294 294 294 295 295 297 307
321 321 320 318 317 315 309 303 300 299 297 295 295 296 299 300 302 299 299 304 319 321 302 303 301 298 298 297 298 297 297 297 298 303 299 295 294 292 292 295 295 295 297 313 311 314 313
322 320 321 316 318 317 313 306 302 299 297 295 296 297 299 300 299 299 302 315 323 312 306 297 298 297 301 297 297 297 298 300 295 296 299 302 306 294 292 294 296 295 297 310 317 313 310
322 320 321 321 317 318 315 311 305 301 297 295 297 298 299 298 299 302 310 322 321 315 303 300 298 302 300 297 299 299 299 299 295 294 305 303 300 292 292 292 293 296 298 297 301 295 300
318 320 321 321 321 319 317 313 307 302 297 295 297 297 297 298 299 302 315 320 314 300 298 300 316 304 307 302 303 303 301 295 296 293 294 298 311 292 291 292 293 295 294 301 300 310 311
320 321 322 321 321 320 318 314 310 304 297 296 299 303 298 297 299 306 320 318 304 296 297 302 309 303 305 304 302 303 304 295 294 293 294 295 301 297 292 294 297 294 297 296 299 301 309
317 318 321 321 321 321 318 315 312 306 299 300 300 306 297 297 304 304 314 309 298 296 296 297 299 302 304 300 302 303 303 298 292 293 297 293 300 303 299 288 288 292 296 299 305 305 298
315 317 318 322 321 321 319 316 313 311 305 300 304 302 297 298 313 308 300 298 298 297 297 297 298 298 295 299 307 301 298 291 291 293 296 296 298 307 304 294 290 292 293 291 291 295 302
316 316 319 320 321 321 320 315 313 314 309 305 303 307 300 299 300 306 302 302 300 296 297 296 295 296 296 297 296 302 300 292 290 292 294 295 299 306 308 305 297 296 292 292 295 300 304
317 319 319 318 320 320 320 314 314 314 309 310 307 308 303 304 303 304 306 303 303 301 296 296 296 298 302 302 297 299 301 293 291 293 291 295 303 295 297 294 293 297 298 296 295 298 302
318 319 319 316 317 318 317 314 314 313 306 308 305 304 299 300 301 305 307 305 307 300 299 298 301 298 298 306 307 304 298 295 300 290 294 287 300 290 294 292 289 290 291 294 296 297 298
319 318 314 316 316 316 316 315 314 309 308 305 300 300 305 301 302 307 308 307 306 302 299 297 300 298 297 296 294 288 288 288 293 295 293 293 294 298 304 289 288 296 293 294 294 292 294
316 316 316 315 315 314 314 310 303 304 309 307 303 304 307 305 304 307 305 305 305 304 304 294 296 302 288 284 285 287 285 285 286 285 288 292 296 299 302 293 303 296 283 285 293 291 291
312 314 313 311 306 302 305 308 308 304 308 308 304 305 303 303 302 302 303 301 299 296 295 294 288 286 285 291 299 299 295 291 284 281 284 286 296 299 300 296 299 301 285 288 290 294 289
306 304 301 302 304 306 309 308 308 305 306 305 305 304 301 302 303 301 301 302 302 298 293 287 285 285 288 298 302 303 304 298 294 284 282 285 288 297 290 297 302 293 282 276 278 294 277
303 300 298 299 305 305 308 309 308 305 306 306 303 303 301 299 292 294 303 304 299 299 294 287 287 289 287 299 302 302 302 285 299 294 288 289 290 294 295 296 296 291 280 275 293 294 275
297 296 297 298 301 303 306 308 309 306 306 305 301 301 301 294 286 284 284 294 293 296 300 286 291 288 292 299 302 300 298 291 291 287 287 290 291 291 292 293 294 279 277 290 281 273 273
297 299 302 307 305 301 305 307 306 304 305 304 301 298 299 288 283 280 279 279 280 281 288 284 291 288 295 296 293 290 293 285 292 300 279 293 294 295 295 295 278 277 276 271 272 275 274
Wind_Speed
8 7 6 5 4 3 3 4 5 6 6 7 8 9 9 10 10 8 5 5 5 6 6 6 6 2 3 5 4 11 12 9 6 2 2 2 3 3 4 4 2 4 5 5 4 4 4
9 9 8 6 5 4 3 4 4 5 5 6 7 8 8 9 8 6 5 7 6 6 6 6 7 2 1 4 5 12 9 8 8 5 4 2 3 6 8 4 3 4 8 7 3 4 3
9 9 9 8 7 5 4 3 3 4 4 4 5 6 7 7 6 2 4 7 6 7 4 5 5 7 12 5 5 11 6 10 11 5 4 4 4 1 5 6 6 7 4 4 3 2 2
11 9 9 9 8 7 5 4 3 3 3 4 4 5 6 6 5 3 4 5 7 5 4 3 5 5 5 4 4 13 6 5 9 11 11 10 12 10 3 10 4 2 2 3 2 1 1
12 10 10 10 10 8 7 5 4 3 3 2 3 4 4 4 3 2 3 3 7 2 5 3 4 3 4 3 5 13 11 4 4 5 6 5 5 4 4 3 3 2 1 1 2 1 0
13 12 11 10 11 10 9 7 5 3 2 2 3 4 4 4 2 2 4 1 12 3 3 4 7 2 5 5 6 11 7 7 4 1 2 4 3 3 3 3 2 2 1 1 3 2 3
14 13 12 11 11 11 10 9 7 4 3 2 4 4 4 3 1 2 2 2 3 1 14 6 2 2 2 8 4 9 10 4 1 5 1 3 1 3 4 4 3 3 0 4 1 2 4
15 14 13 13 12 12 12 10 8 6 4 4 5 5 4 3 1 0 2 3 3 5 9 6 3 3 2 5 2 15 12 1 2 3 1 3 3 2 1 2 1 1 1 2 1 1 4
18 17 15 14 13 13 13 12 10 8 6 5 6 5 3 4 2 4 8 8 8 6 3 3 3 3 3 5 4 9 10 2 5 4 5 3 3 2 2 2 1 1 2 1 3 7 0
22 19 17 16 14 14 14 13 12 10 8 7 7 5 4 5 2 4 3 7 5 3 2 4 3 3 2 1 3 3 5 2 3 4 4 6 2 1 1 3 4 2 3 1 2 5 3
26 23 19 17 17 16 15 15 14 12 9 8 7 5 5 8 4 3 6 7 4 1 3 2 2 2 2 3 1 5 4 1 4 4 2 3 2 2 2 2 2 2 0 1 0 1 3
29 27 23 20 19 18 17 16 15 13 11 9 8 7 8 7 4 7 9 7 2 2 4 2 1 1 1 3 2 4 2 6 3 3 9 4 2 3 2 1 1 5 2 2 3 2 2
33 31 27 23 22 20 19 18 16 15 13 10 9 9 8 7 4 11 10 3 2 4 1 3 1 1 2 3 2 4 2 3 0 2 1 2 2 1 2 2 2 3 3 2 2 3 2
28 34 33 29 26 24 22 20 18 17 15 11 10 9 7 5 12 12 5 3 5 2 4 2 3 2 1 1 2 2 2 2 2 1 3 3 3 0 3 3 3 2 2 2 4 3 4
26 26 31 34 32 29 26 23 21 19 18 16 11 9 6 5 10 10 3 4 3 4 6 9 3 3 2 2 1 1 2 1 1 2 1 2 2 1 3 2 3 2 1 1 1 0 3
28 29 30 32 31 32 30 27 25 23 20 17 12 5 3 5 8 4 3 3 3 1 6 3 5 3 5 4 3 3 3 1 1 1 3 2 1 1 2 1 4 2 2 1 1 4 5
19 26 30 33 32 34 34 33 30 28 24 20 8 3 2 5 7 2 4 4 3 2 1 4 5 5 3 4 3 3 4 2 1 2 2 2 2 3 1 3 1 2 2 2 2 2 3
28 23 28 32 36 36 37 38 37 35 32 23 6 3 4 10 4 1 4 4 4 4 1 2 2 2 6 7 4 4 4 2 1 2 3 1 1 3 0 2 3 2 2 4 3 3 1
28 28 27 32 35 39 40 44 43 42 41 19 5 2 3 2 6 4 2 3 2 4 4 4 3 0 1 4 3 3 4 2 1 3 3 5 2 2 3 3 1 4 3 2 3 0 10
27 27 25 26 31 42 43 47 49 44 41 22 4 3 2 2 2 5 6 5 5 2 3 3 4 3 3 3 3 3 4 2 1 2 4 3 3 5 7 1 4 4 6 9 7 5 11
25 24 24 22 30 41 48 53 53 47 45 16 3 3 3 5 5 5 5 7 7 6 1 3 2 3 5 4 3 4 3 3 1 2 2 1 4 2 7 5 4 8 12 14 16 19 12
22 23 21 16 14 24 48 56 54 50 46 6 5 4 2 2 5 9 5 7 10 5 7 4 4 7 5 5 3 6 7 5 3 2 3 2 2 1 4 2 2 6 16 19 21 20 20
24 25 18 11 7 11 34 56 55 56 44 5 4 3 4 3 4 6 6 8 7 12 1 3 5 6 4 4 4 5 7 7 4 5 7 4 4 1 5 3 7 9 13 20 10 8 12
20 20 18 13 11 9 11 50 51 55 32 10 7 7 3 4 4 5 6 4 6 3 7 2 3 3 3 13 13 8 9 10 8 7 4 5 4 2 5 4 6 2 3 2 12 7 14
19 22 19 16 13 11 19 46 44 45 25 10 13 5 3 3 2 3 9 7 11 6 4 4 4 2 15 4 3 1 1 1 3 6 4 4 3 2 3 3 11 8 3 5 6 4 10
21 22 21 19 20 20 24 31 30 42 21 16 17 9 4 6 5 3 5 5 5 4 3 3 3 3 2 2 2 3 4 0 3 2 4 1 3 4 3 4 7 3 4 2 1 8 2
22 22 21 23 26 24 26 30 28 43 29 15 7 9 4 4 1 1 3 5 6 5 4 4 5 3 1 3 3 5 4 2 3 5 5 4 3 11 10 8 10 1 8 4 3 5 2
22 22 23 24 25 26 25 31 28 40 36 17 8 6 4 4 2 6 6 3 3 3 5 6 6 2 2 5 4 3 4 4 3 3 6 8 9 6 5 7 11 7 6 7 2 2 2
21 22 21 23 24 25 26 31 38 39 36 19 7 12 15 13 4 9 13 8 4 2 4 4 2 4 5 3 2 3 3 3 4 4 1 4 6 4 10 6 3 4 3 2 1 2 1
Wind_Direction
203 203 197 184 173 145 114 100 96 97 104 109 115 124 128 128 126 116 80 51 26 21 15 20 18 56 139 68 48 349 3 17 33 59 74 120 146 128 112 96 93 83 112 69 83 85 75
201 208 204 196 188 176 154 122 114 109 117 122 128 141 142 141 135 114 54 19 12 7 9 20 21 91 130 88 354 354 10 41 47 48 51 32 108 108 97 70 21 95 111 116 108 112 132
207 209 209 205 200 193 182 150 129 119 121 129 142 152 162 165 162 144 3 4 10 350 7 20 31 78 64 86 12 12 34 42 43 60 91 53 107 83 128 112 128 141 112 134 97 117 102
209 212 211 211 206 201 194 180 154 140 137 138 156 174 177 190 207 256 328 347 351 8 16 10 33 87 78 7 17 26 42 45 55 81 92 82 88 86 45 119 118 158 205 210 103 185 109
213 212 214 214 214 208 203 195 188 165 157 142 165 178 181 188 205 254 328 359 346 79 37 42 33 78 88 9 20 5 15 2 32 66 69 78 77 80 156 178 160 167 228 232 159 117 174
221 216 214 216 217 213 210 207 202 189 169 145 162 169 173 185 220 283 325 106 75 49 33 52 43 123 37 351 326 345 358 21 27 5 109 38 73 132 132 228 284 125 210 228 302 95 248
222 224 219 217 220 216 214 212 209 204 186 173 161 162 162 168 202 312 338 127 234 102 40 55 21 56 359 329 15 4 358 345 29 57 87 30 200 69 33 25 73 108 252 299 334 54 282
216 221 223 221 218 220 218 214 210 209 203 185 170 159 158 160 99 224 76 76 81 123 91 41 54 71 34 346 346 12 6 44 51 97 315 167 95 50 89 95 117 133 250 281 239 67 278
214 218 222 224 222 219 219 215 214 211 209 195 183 175 166 164 134 72 101 119 125 126 78 46 36 26 350 4 53 353 4 15 58 74 39 63 75 324 219 124 193 124 286 317 308 321 359
219 216 219 222 223 223 219 215 213 213 210 196 179 179 179 168 141 133 92 134 138 151 169 35 18 38 3 48 64 332 15 30 62 105 77 72 42 14 70 67 334 281 33 38 345 331 315
221 218 218 221 225 224 221 215 210 211 211 203 186 174 176 176 163 156 159 148 151 238 284 56 49 339 26 55 11 31 357 25 81 101 255 81 40 62 93 65 322 80 348 52 37 250 308
222 221 220 221 223 224 222 217 210 207 209 207 196 172 145 149 150 151 147 146 151 219 248 124 327 341 161 35 55 320 40 55 84 82 51 81 55 18 44 73 13 136 182 147 140 177 213
220 223 222 222 223 223 221 218 211 204 203 201 195 181 181 167 157 153 148 183 220 228 89 154 130 36 66 38 83 26 44 69 84 157 148 138 61 68 347 229 164 238 265 272 238 216 359
234 222 224 220 226 225 221 215 210 202 193 183 179 167 165 164 149 149 153 218 223 115 195 124 136 117 141 344 60 45 129 135 103 180 140 196 187 79 3 22 357 16 325 313 284 284 314
230 233 235 224 221 221 217 212 206 202 192 180 158 136 122 153 159 157 215 223 256 180 141 154 134 180 148 173 293 167 38 93 39 345 262 182 156 106 37 6 336 103 205 28 69 163 266
228 236 240 235 228 220 216 209 202 196 186 170 156 120 107 180 168 147 209 237 198 140 128 163 194 232 176 176 194 195 174 116 131 342 328 149 233 36 65 258 59 356 73 218 146 301 285
226 241 239 237 229 225 221 206 201 193 182 169 114 81 156 176 157 200 214 199 162 201 194 173 178 152 182 176 199 178 141 117 200 108 41 148 306 115 206 191 165 157 192 62 341 307 286
231 240 239 241 236 233 222 209 200 193 183 163 124 151 142 173 187 175 184 171 121 158 235 130 123 122 176 169 165 181 180 88 117 156 153 64 89 236 193 83 322 316 220 214 238 195 224
237 231 238 235 238 232 224 210 201 203 191 148 138 97 61 130 197 180 123 106 136 149 187 164 139 9 72 151 165 168 145 93 130 170 168 180 173 267 191 146 177 236 188 134 95 27 226
234 231 232 236 238 232 223 202 201 208 192 154 136 132 60 4 293 160 150 174 159 27 121 110 124 119 124 120 8 163 157 126 110 131 96 167 178 237 253 47 107 192 208 214 207 217 260
237 227 221 229 239 233 223 194 201 206 191 161 182 169 170 174 219 177 168 148 145 165 100 182 112 210 157 133 142 188 138 145 90 21 65 282 248 225 274 272 235 247 240 223 217 230 243
222 209 209 221 229 238 209 193 200 205 172 138 145 144 46 74 134 144 175 202 166 160 151 191 188 172 174 155 189 181 150 194 200 138 144 1 230 121 264 293 223 253 247 243 243 251 258
211 194 191 182 176 192 195 194 198 192 169 132 140 99 100 115 149 164 194 171 181 136 357 53 149 133 175 142 83 66 69 67 91 160 169 165 163 284 277 326 317 268 235 215 214 219 225
180 190 200 191 181 197 185 184 178 173 175 138 153 121 127 155 188 181 150 133 149 173 135 97 95 123 118 117 108 90 60 63 69 48 27 149 162 209 288 306 257 12 96 321 225 241 220
196 183 177 181 181 194 180 186 192 177 183 172 152 142 118 118 144 113 141 118 100 73 76 88 56 14 149 150 98 108 124 106 35 29 5 1 165 220 269 243 308 270 181 191 184 276 237
188 181 176 172 172 169 187 188 194 188 176 162 157 131 103 116 220 123 125 163 135 114 98 63 50 90 214 164 137 220 229 153 200 123 39 68 15 227 144 246 263 74 154 162 136 272 27
182 180 174 174 176 170 187 195 195 186 184 163 145 145 141 107 27 319 135 169 121 114 102 136 165 169 311 128 174 207 221 1 234 185 152 144 180 221 221 249 276 161 142 146 217 320 72
180 177 177 179 175 170 177 200 198 191 190 166 151 164 120 93 58 21 15 125 120 155 152 147 141 178 146 185 203 190 203 182 212 149 182 174 166 192 201 227 269 130 123 203 61 97 114
183 180 179 176 174 168 175 192 189 184 191 182 119 115 111 78 87 84 76 62 39 53 118 182 52 151 159 138 180 125 171 174 193 244 224 226 217 199 202 218 68 168 50 91 88 65 138